This is the latest recevied weather packets stored in our database for station/object CA3EVY-3. If no packets are shown the sender has not sent any weather packets the latest 10 day(s).
| Time | Temp. | Humidity | Pressure | Rain* | Wind** | Luminosity | Snow |
|---|---|---|---|---|---|---|---|
| 1777917604 | 18.89° C | 37% | 917.5 hPa | - | - | - | - |
| 1777916703 | 18.89° C | 37% | 917.7 hPa | - | - | - | - |
| 1777915803 | 18.89° C | 37% | 917.6 hPa | - | - | - | - |
| 1777914904 | 18.89° C | 37% | 917.8 hPa | - | - | - | - |
| 1777914004 | 18.33° C | 37% | 918.1 hPa | - | - | - | - |
| 1777913104 | 18.33° C | 37% | 918.1 hPa | - | - | - | - |
| 1777912204 | 18.33° C | 37% | 918.1 hPa | - | - | - | - |
| 1777911304 | 18.33° C | 37% | 918.3 hPa | - | - | - | - |
| 1777910404 | 18.33° C | 37% | 918.5 hPa | - | - | - | - |
| 1777909505 | 18.33° C | 37% | 918.5 hPa | - | - | - | - |
| 1777908604 | 17.78° C | 39% | 918.6 hPa | - | - | - | - |
| 1777907703 | 17.78° C | 39% | 918.4 hPa | - | - | - | - |
| 1777906804 | 17.22° C | 41% | 918.4 hPa | - | - | - | - |
| 1777905903 | 16.67° C | 41% | 918.4 hPa | - | - | - | - |
| 1777905003 | 16.67° C | 44% | 918.5 hPa | - | - | - | - |
| 1777904105 | 16.11° C | 44% | 918.5 hPa | - | - | - | - |
| 1777903204 | 15.56° C | 49% | 918.5 hPa | - | - | - | - |
| 1777902303 | 15.56° C | 49% | 918.5 hPa | - | - | - | - |
| 1777901403 | 15° C | 48% | 918.5 hPa | - | - | - | - |
| 1777900503 | 15° C | 48% | 918.5 hPa | - | - | - | - |
| 1777899603 | 15° C | 47% | 918.5 hPa | - | - | - | - |
| 1777898703 | 15° C | 47% | 918.3 hPa | - | - | - | - |
| 1777897804 | 15° C | 46% | 918.2 hPa | - | - | - | - |
| 1777896903 | 15° C | 46% | 918.2 hPa | - | - | - | - |
| 1777896003 | 14.44° C | 47% | 918.1 hPa | - | - | - | - |
* Rain since midnight (hover to see other rain measurements)
** Current wind speed in m/s (hover to see current wind gust speed)